Location: Lombard
(41.8800°N, 88.0080°W)
Time: 10:21:17
(UTC-05:00)

A-11 Canister half - Pass Details

Date: 08 February 2023
Orbit: 1512 x 1687 km, 47.2° (Epoch: 26 March)

Event Time Altitude Azimuth Distance (km) Brightness Sun altitude
Rises 06:18:41 0° 167° (SSE) 4,905 12.0 -7.7°
Reaches altitude 10° 06:25:31 10° 134° (SE) 3,889 12.2 -6.4°
Maximum altitude 06:27:44 11° 121° (ESE) 3,804 12.6 -6.0°
Drops below altitude 10° 06:29:56 10° 108° (ESE) 3,865 13.0 -5.6°
Sets 06:36:34 0° 76° (ENE) 4,809 12.8 -4.4°
